WAT921 RJCH-RJCC

Flight info

Callsign WAT921
Flight time 0h 28m
Altitude 13000
Route TIKYU Y138 NONUT Y11 NAVER
Aircraft DH8B/M-SDFGR/S

Departure

Time 2026-04-28 09:57
Airport Hakodate Airport (RJCH)

Arrival

Time 2026-04-28 10:25
Airport New Chitose Airport (RJCC)
Time Latitude Longitude Altitude Speed Heading
2026-04-28 09:34 41.77526 140.81435 118 ft 0 kts 15°
2026-04-28 09:45 41.77523 140.81435 118 ft 2 kts 15°
2026-04-28 09:45 41.77508 140.81429 117 ft 2 kts 15°
2026-04-28 09:45 41.77494 140.81424 117 ft 2 kts 15°
2026-04-28 09:45 41.77480 140.81418 116 ft 2 kts 15°
2026-04-28 09:46 41.77465 140.81413 116 ft 2 kts 15°
2026-04-28 09:46 41.77451 140.81407 115 ft 2 kts 15°
2026-04-28 09:46 41.77436 140.81401 114 ft 2 kts 15°
2026-04-28 09:46 41.77422 140.81396 113 ft 2 kts 15°
2026-04-28 09:47 41.77412 140.81393 112 ft 1 kts 14°
2026-04-28 09:47 41.77398 140.81393 112 ft 2 kts 339°
2026-04-28 09:47 41.77386 140.81406 112 ft 2 kts 305°
2026-04-28 09:47 41.77382 140.81418 113 ft 0 kts 287°
2026-04-28 09:51 41.77387 140.81398 112 ft 7 kts 289°
2026-04-28 09:51 41.77414 140.81287 106 ft 16 kts 288°
2026-04-28 09:51 41.77452 140.81128 104 ft 19 kts 288°
2026-04-28 09:52 41.77495 140.80951 103 ft 20 kts 287°
2026-04-28 09:52 41.77533 140.80797 102 ft 17 kts 288°
2026-04-28 09:52 41.77556 140.80643 101 ft 15 kts 272°
2026-04-28 09:52 41.77513 140.80539 100 ft 13 kts 200°
2026-04-28 09:53 41.77433 140.80548 96 ft 13 kts 141°
2026-04-28 09:53 41.77387 140.80692 97 ft 20 kts 108°
2026-04-28 09:53 41.77336 140.80896 96 ft 26 kts 108°
2026-04-28 09:53 41.77276 140.81140 97 ft 29 kts 110°
2026-04-28 09:54 41.77210 140.81409 102 ft 30 kts 108°
2026-04-28 09:54 41.77145 140.81677 110 ft 30 kts 108°
2026-04-28 09:54 41.77077 140.81961 111 ft 32 kts 108°
2026-04-28 09:54 41.77005 140.82253 113 ft 33 kts 108°
2026-04-28 09:55 41.76931 140.82552 118 ft 33 kts 108°
2026-04-28 09:55 41.76860 140.82848 126 ft 32 kts 108°
2026-04-28 09:55 41.76791 140.83131 136 ft 29 kts 108°
2026-04-28 09:55 41.76762 140.83316 142 ft 8 kts 133°
2026-04-28 09:56 41.76756 140.83278 141 ft 0 kts 288°
2026-04-28 09:56 41.76770 140.83217 139 ft 34 kts 288°
2026-04-28 09:56 41.76934 140.82556 125 ft 105 kts 290°
2026-04-28 09:57 41.77173 140.81558 474 ft 119 kts 289°
2026-04-28 09:57 41.77300 140.80408 865 ft 137 kts 261°
2026-04-28 09:57 41.76730 140.79340 1306 ft 154 kts 216°
2026-04-28 09:57 41.75629 140.79068 1752 ft 175 kts 173°
2026-04-28 09:58 41.74555 140.79930 2185 ft 192 kts 129°
2026-04-28 09:58 41.74150 140.81644 2612 ft 201 kts 87°
2026-04-28 09:58 41.74183 140.83543 3071 ft 209 kts 93°
2026-04-28 09:58 41.73997 140.85495 3506 ft 217 kts 98°
2026-04-28 09:59 41.73708 140.87494 3938 ft 223 kts 101°
2026-04-28 09:59 41.73369 140.89520 4527 ft 219 kts 102°
2026-04-28 09:59 41.73036 140.91425 5298 ft 207 kts 102°
2026-04-28 09:59 41.72708 140.93275 5916 ft 206 kts 102°
2026-04-28 10:00 41.72372 140.95146 6471 ft 207 kts 102°
2026-04-28 10:00 41.72039 140.97017 7019 ft 209 kts 102°
2026-04-28 10:00 41.71699 140.98914 7558 ft 211 kts 102°
2026-04-28 10:00 41.71354 141.00830 8089 ft 213 kts 102°
2026-04-28 10:01 41.71008 141.02762 8610 ft 215 kts 102°
2026-04-28 10:01 41.70663 141.04706 9136 ft 217 kts 102°
2026-04-28 10:01 41.70314 141.06647 9646 ft 219 kts 103°
2026-04-28 10:01 41.69954 141.08630 10151 ft 221 kts 103°
2026-04-28 10:02 41.69589 141.10651 10646 ft 223 kts 103°
2026-04-28 10:02 41.69225 141.12671 11074 ft 226 kts 103°
2026-04-28 10:02 41.68854 141.14728 11457 ft 231 kts 103°
2026-04-28 10:02 41.68584 141.16855 11805 ft 237 kts 85°
2026-04-28 10:03 41.69184 141.18839 12163 ft 233 kts 46°
2026-04-28 10:03 41.70277 141.20447 12587 ft 234 kts 43°
2026-04-28 10:03 41.71341 141.22105 12946 ft 239 kts 44°
2026-04-28 10:03 41.72438 141.23857 13046 ft 256 kts 45°
2026-04-28 10:04 41.73612 141.25763 13055 ft 274 kts 45°
2026-04-28 10:04 41.74852 141.27788 13048 ft 289 kts 45°
2026-04-28 10:04 41.76167 141.29939 13044 ft 301 kts 45°
2026-04-28 10:04 41.77506 141.32132 13040 ft 310 kts 45°
2026-04-28 10:05 41.78883 141.34389 13038 ft 317 kts 45°
2026-04-28 10:05 41.80286 141.36688 13031 ft 323 kts 45°
2026-04-28 10:05 41.81730 141.39056 13029 ft 327 kts 45°
2026-04-28 10:05 41.83171 141.41422 13028 ft 330 kts 46°
2026-04-28 10:06 41.84660 141.43765 13006 ft 328 kts 39°
2026-04-28 10:06 41.86572 141.45235 12980 ft 311 kts
2026-04-28 10:06 41.88664 141.45758 13029 ft 305 kts
2026-04-28 10:06 41.90755 141.46310 13019 ft 307 kts
2026-04-28 10:07 41.92848 141.46878 13019 ft 307 kts
2026-04-28 10:07 41.94947 141.47461 13021 ft 307 kts
2026-04-28 10:07 41.97030 141.48041 13022 ft 307 kts
2026-04-28 10:07 41.99125 141.48627 13022 ft 308 kts
2026-04-28 10:08 42.01238 141.49219 13022 ft 308 kts
2026-04-28 10:08 42.03326 141.49806 13025 ft 308 kts
2026-04-28 10:08 42.05382 141.50388 13018 ft 296 kts
2026-04-28 10:08 42.07350 141.50951 12805 ft 280 kts
2026-04-28 10:09 42.09187 141.51468 12346 ft 264 kts
2026-04-28 10:09 42.10923 141.51956 11885 ft 250 kts
2026-04-28 10:09 42.12587 141.52425 11424 ft 239 kts
2026-04-28 10:09 42.14154 141.53151 10958 ft 241 kts 18°
2026-04-28 10:10 42.15589 141.54283 10505 ft 236 kts 22°
2026-04-28 10:10 42.16983 141.55425 10032 ft 230 kts 22°
2026-04-28 10:10 42.18327 141.56506 9568 ft 224 kts 22°
2026-04-28 10:10 42.19654 141.57547 9105 ft 220 kts 22°
2026-04-28 10:11 42.20971 141.58551 8639 ft 215 kts 22°
2026-04-28 10:11 42.22267 141.59508 8178 ft 211 kts 22°
2026-04-28 10:11 42.23555 141.60435 7714 ft 208 kts 22°
2026-04-28 10:11 42.24816 141.61320 7256 ft 205 kts 22°
2026-04-28 10:12 42.26077 141.62184 6793 ft 202 kts 22°
2026-04-28 10:12 42.27316 141.63013 6334 ft 199 kts 22°
2026-04-28 10:12 42.28550 141.63838 5872 ft 197 kts 22°
2026-04-28 10:12 42.29780 141.64661 5406 ft 195 kts 22°
2026-04-28 10:13 42.30970 141.65456 4948 ft 193 kts 23°
2026-04-28 10:13 42.32174 141.66261 4479 ft 191 kts 23°
2026-04-28 10:13 42.33360 141.67058 4014 ft 190 kts 23°
2026-04-28 10:13 42.34531 141.67847 3550 ft 188 kts 23°
2026-04-28 10:14 42.35696 141.68633 3103 ft 186 kts 23°
2026-04-28 10:14 42.36800 141.69369 2995 ft 167 kts 22°
2026-04-28 10:14 42.37772 141.70033 2979 ft 150 kts 22°
2026-04-28 10:14 42.38777 141.70729 3069 ft 178 kts 23°
2026-04-28 10:15 42.39972 141.71542 3063 ft 208 kts 23°
2026-04-28 10:15 42.41351 141.72473 3043 ft 229 kts 23°
2026-04-28 10:15 42.42814 141.73450 3032 ft 242 kts 23°
2026-04-28 10:15 42.44356 141.74455 3017 ft 249 kts 20°
2026-04-28 10:16 42.46052 141.74709 3008 ft 248 kts 354°
2026-04-28 10:16 42.47784 141.74541 3024 ft 251 kts 353°
2026-04-28 10:16 42.49454 141.74319 2994 ft 221 kts 351°
2026-04-28 10:16 42.50856 141.74104 2981 ft 188 kts 350°
2026-04-28 10:17 42.52070 141.73904 2974 ft 162 kts 349°
2026-04-28 10:17 42.53106 141.73720 2973 ft 139 kts 348°
2026-04-28 10:17 42.53992 141.73575 2981 ft 117 kts 348°
2026-04-28 10:17 42.54785 141.73431 3007 ft 113 kts 348°
2026-04-28 10:18 42.55558 141.73290 3012 ft 112 kts 348°
2026-04-28 10:18 42.56329 141.73149 3016 ft 111 kts 348°
2026-04-28 10:18 42.57095 141.73013 3014 ft 111 kts 347°
2026-04-28 10:18 42.57874 141.72876 3015 ft 111 kts 348°
2026-04-28 10:19 42.58636 141.72748 3015 ft 111 kts 348°
2026-04-28 10:19 42.59402 141.72612 3015 ft 110 kts 347°
2026-04-28 10:19 42.60164 141.72475 3013 ft 110 kts 348°
2026-04-28 10:19 42.60927 141.72339 3014 ft 110 kts 348°
2026-04-28 10:20 42.61682 141.72203 2996 ft 110 kts 348°
2026-04-28 10:20 42.62444 141.72070 2883 ft 107 kts 348°
2026-04-28 10:20 42.63173 141.71947 2761 ft 105 kts 348°
2026-04-28 10:20 42.63903 141.71819 2618 ft 105 kts 348°
2026-04-28 10:21 42.64631 141.71690 2471 ft 106 kts 348°
2026-04-28 10:21 42.65362 141.71561 2322 ft 106 kts 348°
2026-04-28 10:21 42.66098 141.71429 2170 ft 106 kts 349°
2026-04-28 10:21 42.66832 141.71300 2018 ft 107 kts 349°
2026-04-28 10:22 42.67567 141.71170 1866 ft 107 kts 349°
2026-04-28 10:22 42.68311 141.71040 1729 ft 105 kts 349°
2026-04-28 10:22 42.69025 141.70915 1571 ft 104 kts 350°
2026-04-28 10:22 42.69753 141.70787 1415 ft 104 kts 350°
2026-04-28 10:23 42.70466 141.70660 1267 ft 103 kts 351°
2026-04-28 10:23 42.71175 141.70537 1122 ft 102 kts 351°
2026-04-28 10:23 42.71875 141.70412 978 ft 101 kts 352°
2026-04-28 10:23 42.72578 141.70287 836 ft 100 kts 353°
2026-04-28 10:24 42.73269 141.70165 698 ft 100 kts 354°
2026-04-28 10:24 42.73954 141.70044 560 ft 99 kts 354°
2026-04-28 10:24 42.74633 141.69920 432 ft 97 kts 353°
2026-04-28 10:24 42.75296 141.69806 299 ft 94 kts 354°
2026-04-28 10:25 42.75940 141.69687 172 ft 92 kts 354°
2026-04-28 10:25 42.76567 141.69583 73 ft 88 kts 353°
2026-04-28 10:25 42.77043 141.69502 62 ft 47 kts 354°
2026-04-28 10:25 42.77321 141.69452 65 ft 35 kts 352°
2026-04-28 10:26 42.77546 141.69402 65 ft 29 kts 348°
2026-04-28 10:26 42.77733 141.69327 63 ft 26 kts 338°
2026-04-28 10:26 42.77884 141.69205 65 ft 24 kts 325°
2026-04-28 10:26 42.77989 141.69098 69 ft 17 kts 320°
2026-04-28 10:27 42.78090 141.68993 71 ft 19 kts 319°
2026-04-28 10:27 42.78198 141.68874 71 ft 21 kts 329°
2026-04-28 10:27 42.78304 141.68758 69 ft 15 kts 296°
2026-04-28 10:27 42.78376 141.68625 71 ft 18 kts 310°
2026-04-28 10:28 42.78430 141.68471 80 ft 17 kts 295°
2026-04-28 10:28 42.78485 141.68358 95 ft 10 kts 294°
2026-04-28 10:28 42.78462 141.68260 98 ft 15 kts 222°
2026-04-28 10:29 42.78418 141.68083 92 ft 10 kts 328°
2026-04-28 10:29 42.78476 141.68043 91 ft 0 kts 331°